Date String (YYYY-MM-DD hh:mm:ss) UTC,Instrument flags,absolute air pressure of the measurement (hPa),sample flow rate (lpm),inlet stack bypass flow (lpm),air temperature of the measurement (°C),ambient temperature measured by the external sensor (°C),aerosol sample conditioner tube jacket temperature (°C),OPC LED temperature (°C),internal box temperature (°C),relative humidity of the measurement (%),span deviation,mass concentration of particles derived from Lorenz-Mie calculation of OPC scattering (μg/m³),mass concentration of particles derived from Lorenz-Mie calculation of OPC scattering (μg/m³),mass concentration of particles derived from Lorenz-Mie calculation of OPC scattering (μg/m³)
DateTimeUTC,F1_M11,P_M11,Q1_M11,Q2_M11,T1_M11,T2_M11,T3_M11,T4_M11,T5_M11,U1_M11,ZSPAN_M11,X2_M11,X0_M11,X1_M11
2024-01-04 09:00:00,SystemResetWarning,0825.5,5.00,000.00,021.1,020.4,000.0,029.5,022.5,12.8,0003.3,0007.37,0016.17,0006.30
2024-01-04 09:01:00,SystemResetWarning,0825.5,5.01,000.00,021.1,020.4,000.0,029.5,022.5,12.8,0003.5,0007.36,0017.36,0006.29
2024-01-04 09:02:00,SystemResetWarning,0825.5,5.00,000.00,021.1,020.4,000.0,029.5,022.5,12.8,0003.2,0007.32,0018.15,0006.28
2024-01-04 09:03:00,SystemResetWarning,0825.4,5.00,000.00,021.1,020.4,000.0,029.5,022.5,12.9,0002.9,0007.32,0018.16,0006.29
2024-01-04 09:04:00,SystemResetWarning,0825.4,5.00,000.00,021.1,020.4,000.0,029.5,022.5,12.9,0001.9,0007.33,0018.32,0006.30
2024-01-04 09:05:00,SystemResetWarning,0825.4,5.00,000.00,021.1,020.4,000.0,029.5,022.5,12.9,0003.0,0007.40,0019.29,0006.32
2024-01-04 09:06:00,SystemResetWarning,0825.4,4.99,000.00,021.1,020.4,000.0,029.5,022.5,12.9,0002.7,0007.51,0019.92,0006.34
2024-01-04 09:07:00,SystemResetWarning,0825.3,5.00,000.00,021.1,020.4,000.0,029.5,022.5,13.0,0002.6,0007.47,0019.71,0006.34
2024-01-04 09:08:00,SystemResetWarning,0825.2,5.00,000.00,021.1,020.4,000.0,029.5,022.5,13.0,0002.4,0007.43,0019.50,0006.35
2024-01-04 09:09:00,SystemResetWarning,0825.2,5.00,000.00,021.1,020.4,000.0,029.5,022.5,13.0,0002.1,0007.38,0018.99,0006.35
2024-01-04 09:10:00,SystemResetWarning,0825.2,5.00,000.00,021.1,020.4,000.0,029.5,022.5,13.0,0001.5,0007.34,0018.26,0006.37
2024-01-04 09:11:00,SystemResetWarning,0825.2,5.00,000.00,021.1,020.4,000.0,029.5,022.5,13.0,0001.1,0007.35,0017.51,0006.40
2024-01-04 09:12:00,SystemResetWarning,0825.3,5.01,000.00,021.1,020.4,000.0,029.5,022.5,13.0,0000.3,0007.37,0016.43,0006.41
2024-01-04 09:13:00,SystemResetWarning,0825.4,5.00,000.00,021.1,020.3,000.0,029.5,022.5,13.1,-000.1,0007.41,0015.60,0006.44
2024-01-04 09:14:00,SystemResetWarning,0825.5,5.00,000.00,021.1,020.3,000.0,029.5,022.5,13.1,0000.0,0007.39,0015.38,0006.44
2024-01-04 09:15:00,SystemResetWarning,0825.5,5.00,000.00,021.1,020.3,000.0,029.5,022.5,13.1,0000.1,0007.39,0014.74,0006.44
2024-01-04 09:16:00,SystemResetWarning,0825.5,5.00,000.00,021.1,020.3,000.0,029.5,022.5,13.2,-000.4,0007.37,0013.82,0006.43
2024-01-04 09:17:00,SystemResetWarning,0825.4,5.00,000.00,021.1,020.3,000.0,029.5,022.5,13.2,-000.4,0007.28,0013.05,0006.42
2024-01-04 09:18:00,SystemResetWarning,0825.4,5.00,000.00,021.1,020.3,000.0,029.5,022.5,13.2,-000.5,0007.27,0013.35,0006.41
2024-01-04 09:19:00,SystemResetWarning,0825.4,5.00,000.00,021.1,020.3,000.0,029.5,022.4,13.2,-000.7,0007.24,0013.08,0006.38
2024-01-04 09:20:00,SystemResetWarning,0825.3,5.00,000.00,021.1,020.2,000.0,029.5,022.4,13.2,-000.2,0007.23,0012.88,0006.38
2024-01-04 09:21:00,SystemResetWarning,0825.3,5.00,000.00,021.1,020.2,000.0,029.5,022.4,13.2,0000.4,0007.23,0012.98,0006.36
2024-01-04 09:22:00,SystemResetWarning,0825.2,5.00,000.00,021.1,020.2,000.0,029.5,022.4,13.1,0001.0,0007.25,0013.40,0006.34
2024-01-04 09:23:00,SystemResetWarning,0825.2,5.00,000.00,021.1,020.2,000.0,029.5,022.4,13.1,0001.1,0007.19,0014.28,0006.30
2024-01-04 09:24:00,SystemResetWarning,0825.2,5.00,000.00,021.1,020.2,000.0,029.5,022.5,13.1,0001.5,0007.15,0014.82,0006.27
2024-01-04 09:25:00,SystemResetWarning,0825.2,5.00,000.00,021.1,020.2,000.0,029.5,022.4,13.0,0001.5,0007.13,0014.93,0006.24
2024-01-04 09:26:00,SystemResetWarning,0825.1,5.00,000.00,021.1,020.2,000.0,029.5,022.4,12.9,0001.5,0007.08,0015.75,0006.22
2024-01-04 09:27:00,SystemResetWarning,0825.1,5.00,000.00,021.1,020.1,000.0,029.4,022.4,12.9,0001.5,0007.05,0015.97,0006.20
2024-01-04 09:28:00,SystemResetWarning,0825.0,5.00,000.00,021.1,020.1,000.0,029.4,022.4,12.9,0002.0,0007.02,0016.00,0006.19
2024-01-04 09:29:00,SystemResetWarning,0824.9,5.01,000.00,021.1,020.1,000.0,029.4,022.4,12.9,0000.3,0007.01,0015.72,0006.18
2024-01-04 09:30:00,SystemResetWarning,0824.9,5.00,000.00,021.1,020.1,000.0,029.4,022.4,12.9,0000.9,0007.00,0015.39,0006.17
2024-01-04 09:31:00,SystemResetWarning,0824.9,5.00,000.00,021.1,020.1,000.0,029.4,022.4,12.9,0001.1,0006.98,0015.22,0006.18
2024-01-04 09:32:00,SystemResetWarning,0825.0,5.00,000.00,021.1,020.1,000.0,029.4,022.4,12.9,0000.5,0006.99,0015.54,0006.16
2024-01-04 09:33:00,SystemResetWarning,0825.1,4.99,000.00,021.1,020.1,000.0,029.4,022.4,13.0,0000.3,0006.96,0015.10,0006.13
2024-01-04 09:34:00,SystemResetWarning,0825.1,5.00,000.00,021.1,020.1,000.0,029.4,022.4,13.0,0002.1,0006.92,0014.70,0006.12
2024-01-04 09:35:00,SystemResetWarning,0825.1,5.00,000.00,021.0,020.1,000.0,029.4,022.4,13.0,0001.0,0006.91,0013.98,0006.12
2024-01-04 09:36:00,SystemResetWarning,0825.2,5.00,000.00,021.0,020.1,000.0,029.4,022.4,13.1,0001.5,0006.88,0014.21,0006.11
2024-01-04 09:37:00,SystemResetWarning,0825.2,5.00,000.00,021.0,020.1,000.0,029.4,022.4,13.1,0000.0,0006.90,0013.62,0006.12
2024-01-04 09:38:00,SystemResetWarning,0825.2,5.00,000.00,021.0,020.1,000.0,029.4,022.3,13.1,0000.0,0006.92,0013.12,0006.13
2024-01-04 09:39:00,SystemResetWarning,0825.2,5.00,000.00,021.0,020.1,000.0,029.4,022.3,13.2,0000.1,0006.92,0013.25,0006.14
2024-01-04 09:40:00,SystemResetWarning,0825.2,5.00,000.00,021.0,020.0,000.0,029.4,022.3,13.2,0001.1,0006.91,0013.20,0006.14
2024-01-04 09:41:00,SystemResetWarning,0825.3,5.00,000.00,021.0,020.0,000.0,029.4,022.3,13.2,0000.4,0006.93,0013.16,0006.14
2024-01-04 09:42:00,SystemResetWarning,0825.2,5.00,000.00,021.0,020.0,000.0,029.4,022.3,13.2,0000.1,0006.93,0013.14,0006.14
2024-01-04 09:43:00,SystemResetWarning,0825.2,5.01,000.00,021.0,020.0,000.0,029.4,022.3,13.2,0000.1,0006.95,0012.70,0006.15
2024-01-04 09:44:00,SystemResetWarning,0825.1,5.00,000.00,021.0,020.0,000.0,029.4,022.3,13.3,0000.5,0006.97,0012.60,0006.19
2024-01-04 09:45:00,SystemResetWarning,0825.1,5.00,000.00,021.0,020.0,000.0,029.3,022.3,13.3,0000.3,0007.01,0012.50,0006.21
2024-01-04 09:46:00,SystemResetWarning,0825.1,5.00,000.00,021.0,020.0,000.0,029.3,022.3,13.4,0000.4,0007.04,0012.80,0006.23
2024-01-04 09:47:00,SystemResetWarning,0825.1,5.00,000.00,021.0,020.0,000.0,029.3,022.3,13.4,0000.5,0007.04,0012.61,0006.24
2024-01-04 09:48:00,SystemResetWarning,0825.1,5.00,000.00,021.0,020.0,000.0,029.3,022.3,13.4,0000.3,0007.04,0013.06,0006.24
2024-01-04 09:49:00,SystemResetWarning,0825.1,5.00,000.00,021.0,020.0,000.0,029.3,022.3,13.4,0000.1,0007.06,0013.06,0006.25
2024-01-04 09:50:00,SystemResetWarning,0825.0,5.00,000.00,020.9,020.0,000.0,029.3,022.3,13.4,0000.3,0007.06,0012.75,0006.24
2024-01-04 09:51:00,SystemResetWarning,0824.9,5.00,000.00,020.9,020.0,000.0,029.3,022.3,13.3,0000.9,0007.07,0013.11,0006.25
2024-01-04 09:52:00,SystemResetWarning,0824.9,4.99,000.00,020.9,019.9,000.0,029.3,022.3,13.3,0001.2,0007.08,0013.51,0006.26
2024-01-04 09:53:00,SystemResetWarning,0824.9,4.99,000.00,020.9,019.9,000.0,029.3,022.2,13.2,0001.2,0007.12,0013.63,0006.26
2024-01-04 09:54:00,SystemResetWarning,0824.9,5.01,000.00,020.9,019.9,000.0,029.3,022.2,13.2,0001.3,0007.10,0013.37,0006.26
2024-01-04 09:55:00,SystemResetWarning,0824.9,5.01,000.00,020.9,019.9,000.0,029.3,022.2,13.3,0001.6,0007.10,0014.23,0006.27
2024-01-04 09:56:00,SystemResetWarning,0824.9,5.01,000.00,020.9,019.9,000.0,029.3,022.2,13.3,0001.6,0007.09,0013.93,0006.27
2024-01-04 09:57:00,SystemResetWarning,0824.9,5.01,000.00,020.9,019.9,000.0,029.3,022.2,13.3,0001.8,0007.07,0013.53,0006.26
2024-01-04 09:58:00,SystemResetWarning,0824.9,5.00,000.00,020.9,019.9,000.0,029.3,022.2,13.3,0002.0,0007.10,0013.40,0006.25
2024-01-04 09:59:00,SystemResetWarning,0824.9,5.00,000.00,020.9,019.9,000.0,029.3,022.2,13.3,0002.5,0007.11,0013.18,0006.24
